Hourly Data Report for April 24, 2006

TORONTO CITY
ONTARIO

43°40'00.000" N
79°24'00.000" W
112.50 m
6158355
71508
XTO

Download Data

Hourly Data (April 2006)
Hourly Data Report for April 24, 2006
TIME
LST
Temp Definition
°C
Dew Point Definition
°C
Rel Hum Definition
%
Precip. Amount Definition
mm

Wind Dir Definition
10's deg

Wind Spd Definition
km/h
Visibility Definition
km
Stn Press Definition
kPa
Hmdx Definition


Wind Chill Definition


Weather Definition


00:00 5.2 4.6 96   LegendMM LegendMM   99.49     LegendNANA
01:00 5.1 4.5 96   LegendMM LegendMM   99.44     LegendNANA
02:00 5.1 4.6 97   LegendMM LegendMM   99.40     LegendNANA
03:00 5.2 4.7 97   LegendMM LegendMM   99.41     LegendNANA
04:00 5.5 5.1 97   LegendMM LegendMM   99.43     LegendNANA
05:00 5.6 5.2 97   LegendMM LegendMM   99.46     LegendNANA
06:00 6.1 5.7 97   LegendMM LegendMM   99.53     LegendNANA
07:00 7.1 6.8 98   LegendMM LegendMM   99.54     LegendNANA
08:00 8.0 5.8 86   LegendMM LegendMM   99.63     LegendNANA
09:00 8.7 6.4 85   LegendMM LegendMM   99.67     LegendNANA
10:00 9.8 7.3 84   LegendMM LegendMM   99.66     LegendNANA
11:00 12.4 7.6 72   LegendMM LegendMM   99.64     LegendNANA
12:00 13.0 7.3 68   LegendMM LegendMM   99.58     LegendNANA
13:00 12.9 7.6 70   LegendMM LegendMM   99.57     LegendNANA
14:00 13.9 7.6 66   LegendMM LegendMM   99.47     LegendNANA
15:00 13.2 7.8 70   LegendMM LegendMM   99.55     LegendNANA
16:00 12.3 7.7 73   LegendMM LegendMM   99.61     LegendNANA
17:00 12.3 7.8 74   LegendMM LegendMM   99.62     LegendNANA
18:00 11.9 7.7 75   LegendMM LegendMM   99.68     LegendNANA
19:00 11.5 7.1 74   LegendMM LegendMM   99.65     LegendNANA
20:00 11.1 6.8 75   LegendMM LegendMM   99.69     LegendNANA
21:00 10.5 7.0 79   LegendMM LegendMM   99.64     LegendNANA
22:00 10.3 6.9 79   LegendMM LegendMM   99.60     LegendNANA
23:00 9.4 6.9 84   LegendMM LegendMM   99.53     LegendNANA

Notes on Data Quality.

Legend

  • E = Estimated
  • M = Missing
  • NA = Not Available*
  • [empty] = Indicates an unobserved value
Date modified: